GW2935 Weather Reports


Display with metric or nautical units.
time (UTC)temp
F
wind
direction
speed
MPH
gust
MPH
rain 1hr
in
rain 24hr
in
rain mn
in
humidity
%
barometer
mb
20260504204558 83 313 1.0 7.0 0.00 0.00 0.00 57 1012.3
20260504203111 83 331 2.0 7.0 0.00 0.00 0.00 57 1012.5
20260504201547 82 328 2.0 7.0 0.00 0.00 0.00 57 1012.8
20260504200054 82 246 1.0 7.0 0.00 0.00 0.00 57 1013.1
20260504194547 82 75 1.0 6.0 0.00 0.00 0.00 57 1013.2
20260504193048 83 342 2.0 6.0 0.00 0.00 0.00 55 1013.4
20260504191553 83 158 2.0 6.0 0.00 0.00 0.00 55 1013.7
20260504190058 84 129 1.0 10.0 0.00 0.00 0.00 56 1013.9
20260504184551 83 258 1.0 9.0 0.00 0.00 0.00 55 1014.0
20260504183047 82 44 2.0 6.0 0.00 0.00 0.00 57 1014.1
20260504181543 81 86 2.0 8.0 0.00 0.00 0.00 58 1014.2
20260504180051 81 205 1.0 8.0 0.00 0.00 0.00 58 1014.6
20260504174546 82 333 2.0 7.0 0.00 0.00 0.00 55 1014.7
20260504173055 80 48 2.0 7.0 0.00 0.00 0.00 57 1014.8
20260504171546 81 255 2.0 5.0 0.00 0.00 0.00 60 1015.2
20260504081550 61 0 0.0 0.0 0.00 0.00 0.00 79 1016.6
20260504044553 65 0 0.0 0.0 0.00 0.00 0.00 66 1018.6
20260504043048 66 0 0.0 1.0 0.00 0.00 0.00 64 1018.6
20260504041550 66 0 0.0 3.0 0.00 0.00 0.00 63 1018.7
20260504040058 67 185 0.0 3.0 0.00 0.00 0.00 62 1018.6
20260504034556 66 72 0.0 3.0 0.00 0.00 0.00 62 1018.6
20260504033047 66 0 0.0 2.0 0.00 0.00 0.00 63 1018.7
20260504031555 67 0 0.0 0.0 0.00 0.00 0.00 62 1018.6
20260504030050 68 0 0.0 1.0 0.00 0.00 0.00 60 1018.5
20260504024552 69 265 0.0 5.0 0.00 0.00 0.00 58 1018.3
20260504023046 69 0 0.0 4.0 0.00 0.00 0.00 57 1018.4
20260504021552 70 0 0.0 7.0 0.00 0.00 0.00 56 1018.3
20260504014559 71 0 0.0 6.0 0.00 0.00 0.00 53 1018.1
20260504013108 71 0 0.0 3.0 0.00 0.00 0.00 53 1018.1
20260504011546 72 84 0.0 3.0 0.00 0.00 0.00 52 1017.8
20260504010047 72 0 1.0 5.0 0.00 0.00 0.00 51 1017.8
20260504004548 73 110 0.0 4.0 0.00 0.00 0.00 49 1017.8
20260504003047 74 27 2.0 7.0 0.00 0.00 0.00 48 1017.8
20260504001549 74 221 1.0 4.0 0.00 0.00 0.00 47 1017.8
20260504000046 75 16 1.0 5.0 0.00 0.00 0.00 45 1017.9
20260503234553 76 321 2.0 8.0 0.00 0.00 0.00 44 1017.8
20260503233049 77 279 0.0 4.0 0.00 0.00 0.00 43 1018.0
20260503231548 77 298 1.0 6.0 0.00 0.00 0.00 40 1018.0
20260503230049 78 334 1.0 3.0 0.00 0.00 0.00 39 1018.0
20260503224550 79 120 1.0 4.0 0.00 0.00 0.00 38 1018.2
20260503223051 79 60 0.0 5.0 0.00 0.00 0.00 40 1018.3
20260503221558 80 86 1.0 4.0 0.00 0.00 0.00 38 1018.7
20260503220050 80 71 1.0 4.0 0.00 0.00 0.00 38 1018.5
20260503214553 81 28 1.0 8.0 0.00 0.00 0.00 39 1018.6
20260503213050 81 68 1.0 6.0 0.00 0.00 0.00 37 1019.1
20260503211550 81 84 1.0 6.0 0.00 0.00 0.00 37 1019.3